Time,TemperatureF,DewpointF,PressureIn,WindDirection,WindDirectionDegrees,WindSpeedMPH,WindSpeedGustMPH,Humidity,HourlyPrecipIn,Conditions,Clouds,dailyrainin,SoftwareType,DateUTC
2013-02-11 00:00:00,6.0,4.0,-100.00,SE,130,0.0,1.0,94,-99.99,,,-99.99,,2013-02-11 07:00:00,
2013-02-11 00:32:00,6.0,4.0,-100.00,SE,130,0.0,1.0,94,-99.99,,,-99.99,,2013-02-11 07:32:00,
2013-02-11 00:42:00,6.0,4.0,-100.00,SE,130,0.0,1.0,94,-99.99,,,-99.99,,2013-02-11 07:42:00,
2013-02-11 00:52:00,6.0,4.0,-100.00,SE,130,0.0,1.0,94,-99.99,,,-99.99,,2013-02-11 07:52:00,
2013-02-11 04:00:00,4.0,3.0,-100.00,North,359,0.0,1.0,93,-99.99,,,-99.99,,2013-02-11 11:00:00,
2013-02-11 04:32:00,4.0,3.0,-100.00,North,359,0.0,1.0,93,-99.99,,,-99.99,,2013-02-11 11:32:00,
2013-02-11 04:42:00,4.0,3.0,-100.00,North,359,0.0,1.0,93,-99.99,,,-99.99,,2013-02-11 11:42:00,
2013-02-11 04:52:00,4.0,3.0,-100.00,North,359,0.0,1.0,93,-99.99,,,-99.99,,2013-02-11 11:52:00,
2013-02-11 06:00:00,5.0,3.0,-100.00,NW,325,1.0,2.0,91,-99.99,,,-99.99,,2013-02-11 13:00:00,
2013-02-11 06:33:00,5.0,3.0,-100.00,NW,325,1.0,2.0,91,-99.99,,,-99.99,,2013-02-11 13:33:00,
2013-02-11 06:42:00,5.0,3.0,-100.00,NW,325,1.0,2.0,91,-99.99,,,-99.99,,2013-02-11 13:42:00,
2013-02-11 06:52:00,5.0,3.0,-100.00,NW,325,1.0,2.0,91,-99.99,,,-99.99,,2013-02-11 13:52:00,
2013-02-11 08:00:00,5.0,3.0,-100.00,NW,323,1.0,1.0,92,-99.99,,,-99.99,,2013-02-11 15:00:00,
2013-02-11 08:32:00,5.0,3.0,-100.00,NW,323,1.0,1.0,92,-99.99,,,-99.99,,2013-02-11 15:32:00,
2013-02-11 08:42:00,5.0,3.0,-100.00,NW,323,1.0,1.0,92,-99.99,,,-99.99,,2013-02-11 15:42:00,
2013-02-11 08:52:00,5.0,3.0,-100.00,NW,323,1.0,1.0,92,-99.99,,,-99.99,,2013-02-11 15:52:00,
2013-02-11 10:00:00,15.0,12.0,-100.00,NW,320,0.0,1.0,87,-99.99,,,-99.99,,2013-02-11 17:00:00,
2013-02-11 10:32:00,15.0,12.0,-100.00,NW,320,0.0,1.0,87,-99.99,,,-99.99,,2013-02-11 17:32:00,
2013-02-11 10:42:00,15.0,12.0,-100.00,NW,320,0.0,1.0,87,-99.99,,,-99.99,,2013-02-11 17:42:00,
2013-02-11 10:52:00,15.0,12.0,-100.00,NW,320,0.0,1.0,87,-99.99,,,-99.99,,2013-02-11 17:52:00,
2013-02-11 14:00:00,16.0,10.0,-100.00,NNW,334,3.0,7.0,77,-99.99,,,-99.99,,2013-02-11 21:00:00,
2013-02-11 14:32:00,16.0,10.0,-100.00,NNW,334,3.0,7.0,77,-99.99,,,-99.99,,2013-02-11 21:32:00,
2013-02-11 14:42:00,16.0,10.0,-100.00,NNW,334,3.0,7.0,77,-99.99,,,-99.99,,2013-02-11 21:42:00,
2013-02-11 14:52:00,16.0,10.0,-100.00,NNW,334,3.0,7.0,77,-99.99,,,-99.99,,2013-02-11 21:52:00,
2013-02-11 16:00:00,11.0,4.0,-100.00,WNW,298,3.0,9.0,73,-99.99,,,-99.99,,2013-02-11 23:00:00,
2013-02-11 16:32:00,11.0,4.0,-100.00,WNW,298,3.0,9.0,73,-99.99,,,-99.99,,2013-02-11 23:32:00,
2013-02-11 16:42:00,11.0,4.0,-100.00,WNW,298,3.0,9.0,73,-99.99,,,-99.99,,2013-02-11 23:42:00,
2013-02-11 16:52:00,11.0,4.0,-100.00,WNW,298,3.0,9.0,73,-99.99,,,-99.99,,2013-02-11 23:52:00,
2013-02-11 18:00:00,6.0,-1.0,-100.00,WNW,296,3.0,10.0,72,-99.99,,,-99.99,,2013-02-12 01:00:00,
2013-02-11 18:32:00,6.0,-1.0,-100.00,WNW,296,3.0,10.0,72,-99.99,,,-99.99,,2013-02-12 01:32:00,
2013-02-11 18:42:00,6.0,-1.0,-100.00,WNW,296,3.0,10.0,72,-99.99,,,-99.99,,2013-02-12 01:42:00,
2013-02-11 18:52:00,6.0,-1.0,-100.00,WNW,296,3.0,10.0,72,-99.99,,,-99.99,,2013-02-12 01:52:00,
2013-02-11 20:00:00,5.0,-5.0,-100.00,WNW,285,5.0,11.0,61,-99.99,,,-99.99,,2013-02-12 03:00:00,
2013-02-11 20:32:00,5.0,-5.0,-100.00,WNW,285,5.0,11.0,61,-99.99,,,-99.99,,2013-02-12 03:32:00,
2013-02-11 20:42:00,5.0,-5.0,-100.00,WNW,285,5.0,11.0,61,-99.99,,,-99.99,,2013-02-12 03:42:00,
2013-02-11 20:52:00,5.0,-5.0,-100.00,WNW,285,5.0,11.0,61,-99.99,,,-99.99,,2013-02-12 03:52:00,
2013-02-11 22:00:00,3.0,-2.0,-100.00,NW,307,5.0,10.0,76,-99.99,,,-99.99,,2013-02-12 05:00:00,
2013-02-11 22:32:00,3.0,-2.0,-100.00,NW,307,5.0,10.0,76,-99.99,,,-99.99,,2013-02-12 05:32:00,
2013-02-11 22:42:00,3.0,-2.0,-100.00,NW,307,5.0,10.0,76,-99.99,,,-99.99,,2013-02-12 05:42:00,
2013-02-11 22:52:00,3.0,-2.0,-100.00,NW,307,5.0,10.0,76,-99.99,,,-99.99,,2013-02-12 05:52:00,